[[{"header":{"parameterUnit":"m.s-1","parameterCategory":1,"la1":30.2991,"la2":30.254,"lo1":-89.0895,"lo2":-89.0444,"dy":0.0017,"dx":0.0017,"nx":28,"ny":28,"refTime":"2023-08-08T21:00:00:Z","depth":0,"parameterNumber":2,"parameterNumberName":"U-component_of_WINDS"},"data":[0,0,0,0,0,0,0,0,0,0,0,0,0,0,0,0,0,0,0,0,0,0,0,0,0,0,0,0,0,0,0,0,0,0,0,0,0,0,0,0,0,0,0,0,0,0,0,0,0,0,0,0,0,0,0,0,0,0,5.2431,5.2433,0,5.259,5.2592,5.2594,5.258,5.2578,5.2575,5.2573,5.2734,5.274,5.2747,0,0,0,0,0,0,0,0,0,0,0,0,0,5.2111,5.2117,5.2431,5.2433,5.2435,5.259,5.2592,5.2594,5.258,5.2578,5.2575,5.2572,5.2732,5.2739,5.2747,0,0,0,0,0,0,0,0,0,0,0,0,0,5.2258,5.2119,5.2431,5.2447,5.245,5.259,5.2592,5.2595,5.2581,5.2577,5.2574,5.257,5.2729,5.2738,5.2748,5.2881,0,0,5.2778,5.2782,0,0,0,0,0,0,0,0,5.225,5.227,5.2443,5.2446,5.245,5.2562,5.2538,5.2691,5.2582,5.2531,5.2573,5.2569,5.2679,5.2693,5.2731,5.2889,5.2896,5.2779,5.2785,5.2789,5.2792,0,0,0,0,0,0,0,5.224,5.2263,5.2494,5.2445,5.245,5.2445,5.2462,5.2567,5.2624,5.2535,5.2535,5.2554,5.268,5.2721,5.2734,5.2898,5.2779,5.2787,5.2793,5.2797,5.3168,5.3172,0,0,0,0,0,0,5.2226,5.2254,5.2489,5.2499,5.2339,5.2453,5.2472,5.2529,5.2622,5.2633,5.2557,5.2553,5.2706,5.2723,5.274,5.2898,5.2789,5.2798,5.2804,5.3164,5.3169,5.3173,0,0,0,0,0,0,5.2219,5.2247,5.2483,5.2377,5.2406,5.2463,5.2527,5.2534,5.2575,5.2639,5.2648,5.2588,5.2704,5.2726,5.2845,5.2903,5.2803,5.2812,5.3159,5.3166,5.3171,5.3217,0,0,0,0,0,0,5.221,5.2245,5.2297,5.2378,5.2412,5.2587,5.2531,5.254,5.2592,5.2588,5.2671,5.2681,5.2703,5.2831,5.2855,5.2915,5.2819,5.3154,5.3162,5.3169,5.3211,5.3224,5.3235,0,0,0,0,0,5.2199,5.2305,5.23,5.2328,5.2479,5.259,5.2609,5.2633,5.2597,5.2649,5.2689,5.2678,5.2894,5.2843,5.287,5.2934,5.3151,5.316,5.3169,5.3205,5.3221,5.3235,0,0,0,0,0,0,5.2229,5.2315,5.2311,5.2447,5.2511,5.2588,5.2654,5.265,5.2726,5.2719,5.2745,5.2763,5.2882,5.2921,5.2863,5.3065,5.3017,5.3032,5.3035,5.3051,5.3064,5.305,5.2827,0,0,0,0,0,5.2252,5.2336,5.2407,5.2519,5.2552,5.2597,5.2647,5.2659,5.2727,5.2754,5.2803,5.2868,5.295,5.3003,5.3083,5.3217,5.3232,5.3274,5.3286,5.3296,5.3307,5.3377,5.3395,5.3203,5.3202,5.3202,0,0,5.2299,5.2357,5.2408,5.2527,5.2578,5.2662,5.262,5.2713,5.2775,5.2768,5.2882,5.292,5.2994,5.312,5.3178,5.3156,5.3364,5.3307,5.3315,5.3321,5.3388,5.3406,5.3422,5.3209,5.3207,5.3207,0,0,5.2427,5.2481,5.2578,5.263,5.2709,5.2738,5.2761,5.2838,5.2863,5.2978,5.2973,5.3047,5.3189,5.324,5.3285,5.343,5.3421,5.3455,5.3519,5.3586,5.3601,5.3614,5.3661,5.3679,5.3467,5.3467,5.3467,0,5.2476,5.2604,5.2629,5.2721,5.2771,5.2769,5.2865,5.2915,5.3015,5.3048,5.3022,5.3197,5.3248,5.3383,5.3418,5.3456,5.348,5.3445,5.3597,5.361,5.3623,5.3669,5.3687,5.3471,5.347,5.347,5.347,0,5.2657,5.2746,5.2815,5.2911,5.2969,5.3064,5.31,5.3156,5.3163,5.3195,5.331,5.337,5.3459,5.3493,5.3501,5.3629,5.3611,5.3591,5.3543,5.3644,5.3687,5.3705,5.3475,5.3474,5.3473,5.3472,0,0,5.2809,5.2915,5.294,5.2981,5.3066,5.3134,5.3227,5.3314,5.336,5.3429,5.3504,5.3623,5.3603,5.3654,5.3668,5.3728,5.3833,5.37,5.3701,5.3718,5.3972,5.3983,5.4003,5.3829,5.3832,5.3835,5.3964,0,5.2942,5.3107,5.313,5.3275,5.3354,5.3352,5.3432,5.3492,5.3523,5.3594,5.3629,5.371,5.3681,5.3711,5.377,5.3808,5.3883,5.3799,5.3896,5.3899,5.3874,5.4027,5.4041,5.4159,5.3981,5.3984,5.3986,0,5.312,5.3192,5.3344,5.3414,5.3449,5.352,5.36,5.3669,5.3735,5.3754,5.3809,5.3815,5.3908,5.3858,5.3984,5.3926,5.3968,5.3992,5.3997,5.4004,5.3946,5.4034,5.4198,5.4214,5.4014,5.4012,5.401,0,5.3209,5.3345,5.3452,5.3488,5.3574,5.3624,5.3662,5.3725,5.3774,5.3844,5.3875,5.3956,5.3998,5.4059,5.4085,5.4047,5.4208,5.4162,5.4223,5.4222,5.4255,5.4252,5.4424,5.4288,5.4288,5.4287,5.4287,0,5.3353,5.3445,5.3492,5.3558,5.366,5.3686,5.3785,5.3821,5.3877,5.3947,5.3952,5.4018,5.405,5.412,5.4142,5.4241,5.4261,5.4276,5.428,5.4274,5.4271,5.4299,5.4289,5.4292,5.4291,5.429,5.4289,0,5.3469,5.3505,5.3621,5.3693,5.3713,5.3784,5.3844,5.3906,5.3937,5.4026,5.4048,5.4096,5.4178,5.4211,5.4313,5.4327,5.4439,5.4439,5.4417,5.4417,5.4475,5.4467,5.4668,5.4693,5.4544,5.4546,5.4547,0,5.3557,5.3627,5.3706,5.3753,5.3792,5.387,5.392,5.3948,5.3999,5.4078,5.413,5.4213,5.428,5.4411,5.4454,5.453,5.4529,5.4594,5.454,5.453,5.4525,5.4518,5.4524,5.4603,5.4604,5.4605,5.4606,0,5.3707,5.3721,5.3793,5.3871,5.3931,5.3994,5.4055,5.4093,5.413,5.4187,5.4271,5.4323,5.4426,5.4506,5.4585,5.4622,5.4619,5.4623,5.4641,5.4633,5.4615,5.4621,5.4439,5.4618,5.4617,5.4616,5.4615,5.4615,5.3809,5.3869,5.3933,5.4012,5.4061,5.4117,5.4178,5.4216,5.4287,5.4372,5.4384,5.4473,5.4534,5.4639,5.468,5.4748,5.4731,5.4758,5.4764,5.4769,5.477,5.4607,5.4763,5.4763,5.4763,5.4762,5.4762,0,5.3955,5.3995,5.4069,5.4153,5.4215,5.4208,5.4275,5.4326,5.4404,5.4462,5.4528,5.4622,5.47,5.4748,5.4825,5.487,5.4871,5.4889,5.4884,5.4892,5.4784,5.4759,5.4887,5.4887,5.4887,5.4887,5.4887,5.4887,5.4038,5.4139,5.416,5.4284,5.4323,5.4411,5.4448,5.4499,5.4545,5.465,5.4715,5.4746,5.4799,5.4879,5.4949,5.4961,5.4987,5.5006,5.5016,5.4913,5.49,5.4888,5.4864,5.5013,5.5013,5.5119,5.5119,5.512]},{"header":{"parameterUnit":"m.s-1","parameterCategory":1,"la1":30.2991,"la2":30.254,"lo1":-89.0895,"lo2":-89.0444,"dy":0.0017,"dx":0.0017,"nx":28,"ny":28,"refTime":"2023-08-08T21:00:00:Z","depth":0,"parameterNumber":3,"parameterNumberName":"V-component_of_WINDS"},"data":[0,0,0,0,0,0,0,0,0,0,0,0,0,0,0,0,0,0,0,0,0,0,0,0,0,0,0,0,0,0,0,0,0,0,0,0,0,0,0,0,0,0,0,0,0,0,0,0,0,0,0,0,0,0,0,0,0,0,4.2335,4.2336,0,4.2437,4.2438,4.244,4.2396,4.2394,4.2391,4.2389,4.2491,4.2495,4.25,0,0,0,0,0,0,0,0,0,0,0,0,0,4.2098,4.2103,4.2335,4.2336,4.2338,4.2437,4.2438,4.244,4.2396,4.2393,4.239,4.2388,4.2489,4.2495,4.2501,0,0,0,0,0,0,0,0,0,0,0,0,0,4.2201,4.2104,4.2335,4.2328,4.2328,4.2437,4.2439,4.244,4.2397,4.2393,4.239,4.2386,4.2487,4.2494,4.2502,4.2622,0,0,4.2525,4.2528,0,0,0,0,0,0,0,0,4.2195,4.2209,4.2328,4.2329,4.2329,4.24,4.2392,4.2501,4.2398,4.2371,4.2389,4.2384,4.2463,4.2472,4.25,4.2627,4.2631,4.2525,4.253,4.2533,4.2535,0,0,0,0,0,0,0,4.2188,4.2205,4.2375,4.2329,4.2331,4.2318,4.2329,4.2413,4.2436,4.2373,4.237,4.2383,4.2463,4.2493,4.2502,4.2632,4.2525,4.2532,4.2536,4.2539,4.286,4.2864,0,0,0,0,0,0,4.2181,4.2199,4.2372,4.2378,4.2252,4.2326,4.2337,4.2381,4.2435,4.244,4.2386,4.2381,4.2482,4.2493,4.2505,4.2648,4.2533,4.254,4.2544,4.2856,4.2861,4.2866,0,0,0,0,0,0,4.2176,4.2197,4.2368,4.2288,4.2309,4.2334,4.2383,4.2385,4.2415,4.2445,4.2449,4.2412,4.2479,4.2495,4.2593,4.2651,4.2543,4.255,4.2852,4.2858,4.2864,4.2936,0,0,0,0,0,0,4.217,4.2196,4.2243,4.2289,4.2313,4.2456,4.2387,4.239,4.2428,4.2422,4.2471,4.2475,4.2477,4.2582,4.26,4.266,4.2556,4.2847,4.2854,4.2862,4.2929,4.2944,4.2957,0,0,0,0,0,4.2161,4.2259,4.2245,4.2267,4.2373,4.2459,4.2473,4.2474,4.2433,4.248,4.2499,4.2474,4.2642,4.2592,4.2613,4.2675,4.2843,4.2852,4.2861,4.2923,4.2941,4.2957,0,0,0,0,0,0,4.2218,4.2265,4.2251,4.2367,4.2409,4.2452,4.2511,4.2494,4.2549,4.254,4.2538,4.255,4.2651,4.2673,4.2617,4.2793,4.2736,4.2749,4.2776,4.2794,4.2807,4.28,4.2562,0,0,0,0,0,4.2244,4.2312,4.2348,4.2447,4.2469,4.2487,4.2524,4.2521,4.2565,4.2583,4.2609,4.2652,4.2713,4.2755,4.2814,4.2931,4.294,4.2984,4.2998,4.301,4.3022,4.3084,4.3103,4.2895,4.2895,4.2895,0,0,4.2299,4.2333,4.2375,4.2459,4.2492,4.256,4.2502,4.2577,4.2627,4.2594,4.2688,4.2709,4.2756,4.2864,4.2913,4.2885,4.3081,4.3021,4.303,4.3036,4.3095,4.3115,4.3132,4.2902,4.2901,4.29,0,0,4.2433,4.2466,4.2551,4.2585,4.2635,4.2646,4.2666,4.2711,4.2724,4.2819,4.2794,4.2853,4.296,4.2994,4.3026,4.317,4.3148,4.3189,4.3264,4.3324,4.3341,4.3355,4.3406,4.3424,4.3201,4.3201,4.3201,0,4.2494,4.2598,4.2597,4.2674,4.2711,4.2683,4.2768,4.2801,4.2868,4.2893,4.2861,4.2994,4.3024,4.3139,4.3174,4.32,4.3222,4.3184,4.3338,4.3353,4.3366,4.3415,4.3434,4.3206,4.3205,4.3205,4.3204,0,4.267,4.2741,4.2804,4.2869,4.2913,4.2994,4.3004,4.3048,4.304,4.3053,4.3149,4.3183,4.3248,4.3275,4.3268,4.3389,4.337,4.3338,4.3281,4.3391,4.3436,4.3455,4.3212,4.3211,4.3209,4.3208,0,0,4.2844,4.2907,4.293,4.2959,4.3011,4.3066,4.3144,4.3208,4.3245,4.3291,4.3356,4.3446,4.3417,4.3453,4.3449,4.3502,4.3613,4.3464,4.3465,4.349,4.3746,4.377,4.3791,4.3599,4.3602,4.3605,4.3742,0,4.2982,4.3121,4.3122,4.3249,4.3314,4.3287,4.3355,4.3394,4.3408,4.3463,4.3478,4.3542,4.3499,4.352,4.3571,4.3589,4.3664,4.3579,4.3657,4.366,4.3647,4.3815,4.3841,4.3968,4.376,4.3763,4.3765,0,4.3162,4.3215,4.3348,4.339,4.3417,4.3478,4.3536,4.359,4.3632,4.3638,4.3677,4.3665,4.3742,4.3682,4.3788,4.373,4.3761,4.3775,4.3779,4.3787,4.372,4.3827,4.4009,4.4028,4.3793,4.3791,4.3789,0,4.3275,4.3379,4.3472,4.3497,4.3548,4.3592,4.3614,4.3653,4.3691,4.374,4.3764,4.3822,4.3854,4.3898,4.3901,4.3857,4.4007,4.3947,4.4013,4.4013,4.4047,4.4045,4.4237,4.4067,4.4067,4.4066,4.4066,0,4.3429,4.3512,4.3524,4.3581,4.3672,4.3671,4.376,4.3779,4.3813,4.3872,4.3852,4.3908,4.3909,4.3965,4.3967,4.4054,4.4068,4.4074,4.4074,4.4076,4.4076,4.4098,4.4089,4.4072,4.407,4.4069,4.4069,0,4.3572,4.3583,4.3683,4.3722,4.3734,4.3799,4.3832,4.3886,4.3897,4.3972,4.3989,4.4006,4.4071,4.4078,4.4154,4.4155,4.4259,4.425,4.4246,4.4244,4.431,4.4303,4.4523,4.4551,4.4363,4.4365,4.4366,0,4.367,4.3733,4.3779,4.3817,4.3843,4.3905,4.3943,4.3943,4.3984,4.4035,4.4082,4.4145,4.4196,4.43,4.4319,4.4376,4.4367,4.444,4.4375,4.4375,4.4368,4.4364,4.437,4.4452,4.4454,4.4456,4.4458,0,4.3842,4.3844,4.39,4.3959,4.4005,4.405,4.4093,4.4125,4.413,4.4176,4.4243,4.4282,4.4358,4.4421,4.4476,4.4498,4.4479,4.4477,4.4496,4.4499,4.4494,4.4497,4.428,4.4473,4.4471,4.447,4.4469,4.4469,4.3965,4.4019,4.406,4.4122,4.4154,4.4194,4.4246,4.4264,4.4319,4.4383,4.4378,4.4452,4.4489,4.4562,4.4588,4.4644,4.4619,4.4646,4.4653,4.4659,4.4666,4.4485,4.4654,4.4653,4.4653,4.4653,4.4652,0,4.4135,4.416,4.4218,4.4278,4.4327,4.4305,4.435,4.4392,4.4457,4.4495,4.4545,4.462,4.468,4.4702,4.476,4.48,4.4793,4.4815,4.4812,4.4817,4.4685,4.4663,4.482,4.482,4.482,4.482,4.482,4.482,4.423,4.432,4.4327,4.4432,4.4455,4.4527,4.4555,4.4591,4.462,4.4706,4.4756,4.477,4.4801,4.4861,4.4914,4.4918,4.494,4.4967,4.4968,4.4844,4.4827,4.4811,4.4791,4.4972,4.4972,4.5096,4.5097,4.5098]}]]